Showing default

GSAT 17, 42815

Orbit data source: Space-Track

GSAT 17, 42815 is a payload satellite owned by ISRO (IN) in GEO that was launched on Wed, 28 Jun 2017 UTC via an ARIANE 5ECA launch vehicle from the French Guiana (FRGUI). Payload-class satellites include a variety of spacecraft equipped with specific instruments for various scientific and technological missions. These include communications satellites like Starlink; space stations such as the ISS; scientific satellites like the Hubble; Earth observation satellites from companies like Planet Labs, Umbra, and HawkEye 360; GPS; miniature CubeSats for education and research; and military/defense satellites.

Not visible in the next 10 days
Identifier
42815, 2017-040B
Orbit
GEO
Country
Flag of ININ / IND
Related business
Manufacturer
ISRO SAC/Banga
Mission
Operational Civil Communications
Bus & Motor
I3K, ISRO LAM
Mass
3,477 kg wet, ~1,400 kg dry
Launch date (UTC)
2017-06-28 (8 years ago)
Launch vehicle
ARIANE 5ECA
Launch site
French Guiana (FRGUI)
Object type
Payload
Rocket body
Debris
Shape & HBR
Box + 2 Pan, 10.0 m
Radar Cross Section
15.081 m², Large (>1 m²)

Expand to show TLE details & history
Last TLE update: 19 hours ago

TLE from 19 hours ago
0 GSAT 17
1 42815U 17040B   25259.95911503 -.00000277  00000-0  00000-0 0  9995
2 42815   0.0123 207.1137 0005065  50.3459 177.4631  1.00269486 30043
Epoch: 2025-09-16T23:01Z
TLE epoch observation values (Epoch: 2025-09-16T23:01:07.538Z)
Latitude
-0.02454°
Longitude
93.50323°
Altitude
35,807.973 km
Speed
3.073 km/s
True Right ascension
04h 59m 42s
True Declination
0° 01' 28"
Sunlit
Object was in daylight at epoch
Visualization orbit readout
Latitude
Unknown
Longitude
Unknown
Altitude
Unknown
Speed
Unknown
Apparent Right ascension
Unknown
Apparent Declination
Unknown
Sunlit
N/A
Visualization observer readout
Local Sidereal Time
10:49:12
Azimuth
Unknown
Elevation
Unknown
Doppler factor
Unknown
Orbital elements
Apogee altitude
35,809.667 km
Perigee altitude
35,766.953 km
Semi-major axis
42,166.447 km
Eccentricity
0.00051
Inclination
0.0123°
RAAN
207.1137°
Arg. of periapsis
50.3459°
True anomaly
177.46567°
Mean anomaly
177.4631°
Eccentric anomaly
177.46438°
Mean motion
0.25066 °/min
Orbital period
1,436.18 mins
BSTAR
0
Loading maneuver chart data...
Computing Atmospheric mass density...
Loading historical data...
Loading historical data...
Loading historical data...
Loading historical data...
Loading historical data...
Loading historical data...
Loading historical data...
Other satellites on launch #40 in the year 2017 (2017-06-28 UTC)

Documentation

Showing up to 5 results
|